User: anonymous   Login
Location: Most
(50.5133°N, 13.6207°E)
Time: 04:12:01
(UTC+01:00)
Language:

HuskySat-1 - Orbit

View from above orbital plane
View from above orbital plane
View from above satellite
View from above satellite

Ground track
Ground track

The orbit data is extracted from the following two-line orbital elements,

1 45117U 19071G   21339.54565238  .00007685  00000-0  20686-3 0  9993
2 45117  51.6406 284.2670 0009036 184.7711 175.3189 15.38818342103504
Epoch (UTC): 05 December 2021 13:05:44
Eccentricity: 0.0009036
inclination: 51.6406°
perigee height: 443 km
apogee height: 456 km
right ascension of ascending node: 284.2670°
argument of perigee: 184.7711°
revolutions per day: 15.38818342
mean anomaly at epoch: 175.3189°
orbit number at epoch: 10350

The dashed part of the orbit path shows where the satellite is in the earth's shadow,  

DLR